Overview Statistics Trail Chart Weather Telemetry Raw packets
 

This is the latest recevied weather packets stored in our database for station/object KC1HBM. If no packets are shown the sender has not sent any weather packets the latest 10 day(s).

<< 1 2 3 4 5 6 7 >>
Time Temp. Humidity Pressure Rain* Wind** Luminosity Snow
1788607660 17.22° C 91% 1006.8 hPa 0 mm - 45 W/m² -
1788607330 17.22° C 92% 1007 hPa 0 mm - 40 W/m² -
1788607030 17.22° C 92% 1007.2 hPa 0 mm - 26 W/m² -
1788606729 16.67° C 92% 1006.9 hPa 0 mm - 21 W/m² -
1788606429 16.67° C 93% 1006.7 hPa 0 mm - 22 W/m² -
1788606123 16.67° C 93% 1006.8 hPa 0 mm - 17 W/m² -
1788605819 16.67° C 93% 1006.7 hPa 0 mm - 16 W/m² -
1788605517 16.67° C 93% 1006.8 hPa 0 mm - 11 W/m² -
1788605213 16.67° C 93% 1006.9 hPa 0 mm - 8 W/m² -
1788604909 16.67° C 93% 1006.6 hPa 0 mm - 6 W/m² -
1788604604 16.67° C 94% 1006.6 hPa 0 mm - 4 W/m² -
1788604299 16.67° C 94% 1006.6 hPa 0 mm - 7 W/m² -
1788603995 16.11° C 95% 1006.5 hPa 0 mm - 5 W/m² -
1788603692 16.11° C 95% 1006.5 hPa 0 mm - 2 W/m² -
1788603390 16.11° C 96% 1006.5 hPa 0 mm - 0 W/m² -
1788603088 16.11° C 96% 1006.4 hPa 0 mm - 0 W/m² -
1788602785 16.11° C 96% 1006.4 hPa 0 mm - 0 W/m² -
1788602480 16.11° C 96% 1006.4 hPa 0 mm - 0 W/m² -
1788602179 16.11° C 96% 1006.5 hPa 0 mm - 0 W/m² -
1788601874 16.11° C 96% 1006.4 hPa 0 mm - 0 W/m² -
1788601570 16.11° C 96% 1006.3 hPa 0 mm - 0 W/m² -
1788601268 16.11° C 95% 1006.3 hPa 0 mm - 0 W/m² -
1788600963 16.11° C 95% 1006.1 hPa 0 mm - 0 W/m² -
1788600660 16.67° C 95% 1006.2 hPa 0 mm - 0 W/m² -
1788600359 16.67° C 95% 1006.1 hPa 0 mm - 0 W/m² -

* Rain latest hour (hover to see other rain measurements)
** Current wind speed in m/s (hover to see current wind gust speed)